Kezdőlap
METAR-TAF:

METAR-TAF

Repülőterek :

Newton Municipal Airport

Newton, Iowa, Amerikai Egyesült Államok

földrajzi szélesség: 41-41N, földrajzi hosszúság: 093-01W, magasság: 290 m

Jelenlegi meteorológiai megfigyelések

A jelentés 35 perccel ezelõtt készült, 12:15 UTC
Északnyugati szél 21 kt széllökések: 28 kt
Hőmérséklet -14°C
Páratartalom 78%
Légköri nyomás 1019 hPa
Látótávolság: 16.1 km
Derült ég

METAR: KTNU 281215Z AUTO 31021G28KT 10SM CLR M14/M17 A3008 RMK A01

Idő: 06:50 (12:50 UTC)


TAF: hiányzik

Meteorológiai megfigyelések és előrejelzések több, mint 4000 repülőtéren (METAR és TAF jelentéseket).

A térképen piros és sárga pontok jelzik az elérhető meteorológiai állomásokat.

Mozgassa az egeret a pont fölött, hogy megjelenjen az állomás neve.

Azután kattintson az időjárási megfigyelések és előrejelzések megtekintéséhez.

A térkép megváltoztatása: kattintson a fekete keresztel jelölt zöld gombra ráközelítéshez, a vonallal jelölt zöld gombra távolításhoz, vagy a zöld nyilakra a szomszédos térképek eléréséhez.


METAR-TAF: